EWG5T EGPH-EDDL

Flight info

Callsign EWG5T
Flight time N/A
Altitude 37000
Route TLA Y96 OTBUN DCT NATEB DCT TOWTE DCT BUZDE DCT GODOS DCT AMGOD DCT PAM P62 PISAP PISAP1A
Aircraft A320/M-SDE2E3FGIJ1RWXY/HB1

Departure

Time 2026-04-23 16:00
Airport Edinburgh Airport (EGPH)

Arrival

Time N/A
Airport Düsseldorf Airport (EDDL)
Time Latitude Longitude Altitude Speed Heading
2026-04-23 15:34 55.94702 -3.36602 117 ft 0 kts 89°
2026-04-23 15:52 55.94701 -3.36640 112 ft 4 kts 85°
2026-04-23 15:52 55.94698 -3.36687 112 ft 4 kts 73°
2026-04-23 15:52 55.94687 -3.36728 112 ft 4 kts 30°
2026-04-23 15:52 55.94677 -3.36735 112 ft 0 kts 359°
2026-04-23 15:54 55.94706 -3.36736 113 ft 5 kts 359°
2026-04-23 15:55 55.94739 -3.36739 116 ft 6 kts 351°
2026-04-23 15:55 55.94806 -3.36775 116 ft 10 kts 359°
2026-04-23 15:55 55.94874 -3.36785 116 ft 10 kts 341°
2026-04-23 15:55 55.94922 -3.36846 114 ft 7 kts 301°
2026-04-23 15:56 55.94917 -3.36925 115 ft 6 kts 243°
2026-04-23 15:56 55.94880 -3.37038 115 ft 16 kts 239°
2026-04-23 15:56 55.94831 -3.37183 112 ft 12 kts 238°
2026-04-23 15:56 55.94788 -3.37307 112 ft 12 kts 239°
2026-04-23 15:57 55.94729 -3.37482 111 ft 22 kts 239°
2026-04-23 15:57 55.94638 -3.37751 115 ft 24 kts 237°
2026-04-23 15:57 55.94550 -3.38007 114 ft 18 kts 242°
2026-04-23 15:57 55.94490 -3.38186 113 ft 16 kts 238°
2026-04-23 15:58 55.94421 -3.38388 114 ft 20 kts 239°
2026-04-23 15:58 55.94354 -3.38586 114 ft 13 kts 238°
2026-04-23 15:58 55.94322 -3.38679 115 ft 8 kts 238°
2026-04-23 15:58 55.94284 -3.38795 114 ft 13 kts 246°
2026-04-23 15:59 55.94337 -3.38922 114 ft 13 kts 329°
2026-04-23 15:59 55.94413 -3.38960 114 ft 9 kts 23°
2026-04-23 15:59 55.94456 -3.38852 113 ft 18 kts 60°
2026-04-23 15:59 55.94646 -3.38291 114 ft 88 kts 59°
2026-04-23 16:00 55.95068 -3.37046 113 ft 144 kts 59°
2026-04-23 16:00 55.95627 -3.35400 598 ft 155 kts 59°
2026-04-23 16:00 55.96267 -3.33857 1350 ft 159 kts 43°
2026-04-23 16:00 55.97152 -3.32443 1700 ft 182 kts 43°
2026-04-23 16:01 55.98152 -3.30836 2079 ft 203 kts 44°
2026-04-23 16:01 55.99267 -3.29026 2413 ft 231 kts 43°
2026-04-23 16:01 56.00526 -3.26986 2875 ft 256 kts 43°
2026-04-23 16:01 56.01873 -3.24816 3612 ft 266 kts 43°
2026-04-23 16:02 56.03265 -3.22591 4487 ft 271 kts 42°
2026-04-23 16:02 56.04608 -3.20181 5362 ft 276 kts 57°
2026-04-23 16:02 56.05225 -3.16930 5890 ft 281 kts 88°
2026-04-23 16:02 56.05090 -3.13478 6007 ft 277 kts 99°
2026-04-23 16:03 56.04615 -3.10174 6009 ft 273 kts 118°
2026-04-23 16:03 56.03469 -3.07446 6437 ft 277 kts 140°
2026-04-23 16:03 56.01975 -3.05289 7434 ft 275 kts 144°
2026-04-23 16:03 56.00471 -3.03225 8277 ft 278 kts 144°
2026-04-23 16:04 55.98918 -3.01141 9133 ft 281 kts 148°
2026-04-23 16:04 55.97120 -2.99828 9949 ft 281 kts 172°
2026-04-23 16:04 55.95164 -2.99791 10738 ft 283 kts 190°
2026-04-23 16:04 55.93229 -3.00786 11256 ft 298 kts 204°
2026-04-23 16:05 55.91956 -3.01841 11415 ft 313 kts 205°
2026-04-23 16:05 55.89212 -3.04105 12058 ft 331 kts 205°
2026-04-23 16:05 55.87121 -3.05800 12739 ft 336 kts 205°
2026-04-23 16:05 55.84968 -3.07530 13462 ft 341 kts 205°
2026-04-23 16:06 55.83526 -3.08682 13946 ft 344 kts 205°
2026-04-23 16:06 55.81320 -3.10440 14597 ft 349 kts 205°
2026-04-23 16:06 55.78360 -3.12793 15442 ft 353 kts 204°
2026-04-23 16:06 55.76100 -3.14586 16069 ft 357 kts 204°
2026-04-23 16:07 55.74561 -3.15804 16511 ft 359 kts 204°
2026-04-23 16:07 55.72270 -3.17621 17135 ft 362 kts 204°
2026-04-23 16:07 55.69960 -3.19459 17770 ft 366 kts 204°
2026-04-23 16:07 55.67619 -3.21318 18393 ft 369 kts 204°
2026-04-23 16:08 55.65290 -3.23161 18964 ft 372 kts 203°
2026-04-23 16:08 55.62910 -3.25041 19496 ft 375 kts 204°
2026-04-23 16:08 55.60507 -3.26939 20021 ft 378 kts 203°
2026-04-23 16:08 55.58022 -3.28320 20518 ft 381 kts 188°
2026-04-23 16:09 55.55367 -3.28400 21023 ft 385 kts 172°
2026-04-23 16:09 55.52788 -3.27060 21497 ft 388 kts 154°
2026-04-23 16:09 55.50548 -3.24393 21961 ft 392 kts 136°
2026-04-23 16:09 55.48851 -3.20611 22409 ft 397 kts 119°
2026-04-23 16:10 55.47871 -3.16061 22872 ft 401 kts 102°
2026-04-23 16:10 55.47343 -3.11198 23323 ft 405 kts 101°
2026-04-23 16:10 55.46824 -3.06277 23783 ft 408 kts 101°
2026-04-23 16:10 55.46217 -3.01377 24194 ft 411 kts 107°
2026-04-23 16:11 55.45189 -2.96726 24574 ft 414 kts 117°
2026-04-23 16:11 55.43787 -2.92271 24956 ft 416 kts 120°
2026-04-23 16:11 55.42352 -2.87813 25336 ft 419 kts 119°
2026-04-23 16:11 55.40915 -2.83333 25710 ft 422 kts 119°
2026-04-23 16:12 55.39472 -2.78822 26085 ft 424 kts 119°
2026-04-23 16:12 55.38016 -2.74267 26453 ft 427 kts 119°
2026-04-23 16:12 55.36556 -2.69703 26820 ft 429 kts 119°
2026-04-23 16:12 55.35085 -2.65113 27190 ft 432 kts 119°
2026-04-23 16:13 55.33624 -2.60561 27559 ft 434 kts 119°
2026-04-23 16:13 55.30635 -2.51286 28270 ft 439 kts 119°
2026-04-23 16:13 55.29119 -2.46607 28618 ft 441 kts 119°
2026-04-23 16:14 55.27594 -2.41905 28977 ft 443 kts 119°
2026-04-23 16:14 55.26058 -2.37185 29309 ft 446 kts 119°
2026-04-23 16:14 55.24518 -2.32451 29637 ft 448 kts 119°
2026-04-23 16:14 55.22964 -2.27685 29964 ft 451 kts 118°
2026-04-23 16:15 55.21422 -2.22965 30295 ft 453 kts 118°
2026-04-23 16:15 55.19854 -2.18167 30595 ft 455 kts 118°
2026-04-23 16:15 55.18277 -2.13343 30848 ft 457 kts 119°
2026-04-23 16:15 55.16688 -2.08508 31113 ft 459 kts 119°
2026-04-23 16:16 55.15088 -2.03658 31380 ft 460 kts 119°
2026-04-23 16:16 55.13478 -1.98790 31638 ft 462 kts 119°
2026-04-23 16:16 55.11867 -1.93928 31940 ft 462 kts 119°
2026-04-23 16:16 55.10274 -1.89129 32313 ft 461 kts 119°
2026-04-23 16:17 55.08666 -1.84297 32687 ft 460 kts 120°
2026-04-23 16:17 55.07052 -1.79454 33042 ft 459 kts 120°
2026-04-23 16:17 55.05446 -1.74645 33397 ft 458 kts 120°
2026-04-23 16:17 55.03836 -1.69831 33784 ft 456 kts 120°
2026-04-23 16:18 55.02313 -1.64994 34197 ft 454 kts 118°
2026-04-23 16:18 55.00890 -1.60092 34594 ft 452 kts 117°
2026-04-23 16:18 54.99534 -1.55171 34956 ft 450 kts 116°
2026-04-23 16:18 54.98195 -1.50240 35295 ft 448 kts 116°
2026-04-23 16:19 54.96853 -1.45347 35613 ft 446 kts 117°
2026-04-23 16:19 54.95500 -1.40502 35903 ft 445 kts 117°
2026-04-23 16:19 54.94142 -1.35734 36180 ft 444 kts 118°
2026-04-23 16:19 54.92757 -1.30940 36453 ft 443 kts 118°
2026-04-23 16:20 54.91363 -1.26156 36721 ft 442 kts 118°
2026-04-23 16:20 54.89969 -1.21380 36962 ft 441 kts 118°
2026-04-23 16:20 54.88581 -1.16622 37201 ft 441 kts 118°
2026-04-23 16:20 54.87196 -1.11877 37436 ft 441 kts 118°
2026-04-23 16:21 54.84428 -1.02390 37510 ft 439 kts 118°
2026-04-23 16:21 54.81671 -0.92946 37512 ft 438 kts 118°
2026-04-23 16:22 54.78924 -0.83596 37506 ft 437 kts 118°
2026-04-23 16:22 54.76152 -0.74208 37507 ft 437 kts 118°
2026-04-23 16:23 54.73190 -0.65118 37512 ft 434 kts 128°
2026-04-23 16:23 54.69449 -0.56909 37512 ft 434 kts 129°
2026-04-23 16:24 54.65698 -0.48714 37514 ft 434 kts 129°
2026-04-23 16:24 54.61945 -0.40541 37516 ft 434 kts 129°
2026-04-23 16:25 54.58201 -0.32409 37517 ft 434 kts 129°
2026-04-23 16:25 54.54431 -0.24252 37514 ft 433 kts 130°
2026-04-23 16:26 54.50667 -0.16136 37515 ft 433 kts 130°
2026-04-23 16:26 54.46913 -0.08064 37515 ft 433 kts 130°
2026-04-23 16:27 54.43134 0.00020 37510 ft 433 kts 130°
2026-04-23 16:27 54.39345 0.08094 37515 ft 433 kts 130°
2026-04-23 16:28 54.35587 0.16099 37518 ft 433 kts 130°
2026-04-23 16:28 54.31794 0.24160 37517 ft 433 kts 130°
2026-04-23 16:29 54.27988 0.32195 37519 ft 433 kts 130°
2026-04-23 16:29 54.24205 0.40157 37517 ft 433 kts 130°
2026-04-23 16:30 54.20400 0.48161 37518 ft 433 kts 130°
2026-04-23 16:30 54.16582 0.56144 37516 ft 433 kts 130°
2026-04-23 16:31 54.12778 0.64069 37515 ft 433 kts 130°
2026-04-23 16:31 54.08957 0.72018 37512 ft 433 kts 130°
2026-04-23 16:32 54.05137 0.79962 37516 ft 433 kts 130°
2026-04-23 16:32 54.01323 0.87854 37513 ft 433 kts 130°
2026-04-23 16:33 53.97482 0.95761 37518 ft 433 kts 130°
2026-04-23 16:33 53.93639 1.03651 37512 ft 433 kts 130°
2026-04-23 16:34 53.89785 1.11528 37514 ft 433 kts 130°
2026-04-23 16:34 53.85948 1.19344 37511 ft 433 kts 130°
2026-04-23 16:35 53.82083 1.27205 37510 ft 434 kts 130°
2026-04-23 16:35 53.78236 1.35014 37509 ft 434 kts 129°
2026-04-23 16:36 53.75179 1.43810 37508 ft 435 kts 112°
2026-04-23 16:36 53.72913 1.53252 37502 ft 435 kts 113°
2026-04-23 16:37 53.70612 1.62718 37508 ft 436 kts 113°
2026-04-23 16:37 53.68298 1.72186 37496 ft 436 kts 113°
2026-04-23 16:38 53.65978 1.81658 37506 ft 436 kts 113°
2026-04-23 16:38 53.63655 1.91100 37498 ft 436 kts 113°
2026-04-23 16:39 53.61340 2.00486 37503 ft 436 kts 113°
2026-04-23 16:39 53.58995 2.09920 37496 ft 436 kts 113°
2026-04-23 16:40 53.56644 2.19356 37497 ft 436 kts 113°
2026-04-23 16:40 53.54298 2.28722 37499 ft 436 kts 113°
2026-04-23 16:41 53.51938 2.38115 37488 ft 436 kts 113°
2026-04-23 16:41 53.49567 2.47522 37484 ft 436 kts 113°
2026-04-23 16:42 53.47202 2.56856 37490 ft 436 kts 113°
2026-04-23 16:42 53.44816 2.66231 37487 ft 436 kts 113°
2026-04-23 16:43 53.42422 2.75598 37487 ft 436 kts 113°
2026-04-23 16:43 53.40036 2.84870 37487 ft 435 kts 113°
2026-04-23 16:44 53.37640 2.94179 37482 ft 435 kts 112°
2026-04-23 16:44 53.35225 3.03502 37477 ft 436 kts 112°
2026-04-23 16:45 53.32817 3.12771 37480 ft 436 kts 112°
2026-04-23 16:45 53.30386 3.22075 37476 ft 436 kts 112°
2026-04-23 16:46 53.27952 3.31370 37480 ft 436 kts 112°
2026-04-23 16:46 53.25656 3.38841 37476 ft 437 kts 124°
2026-04-23 16:47 53.21395 3.46079 37480 ft 440 kts 144°
2026-04-23 16:47 53.16067 3.51241 37463 ft 442 kts 149°
2026-04-23 16:48 53.10735 3.56217 37464 ft 443 kts 149°
2026-04-23 16:48 53.05345 3.61250 37456 ft 443 kts 149°
2026-04-23 16:49 52.99975 3.66350 37453 ft 443 kts 144°
2026-04-23 16:49 52.95490 3.73155 37437 ft 439 kts 126°
2026-04-23 16:50 52.91873 3.81332 37439 ft 439 kts 124°
2026-04-23 16:50 52.88228 3.89489 37434 ft 441 kts 124°
2026-04-23 16:51 52.84582 3.97603 37448 ft 441 kts 124°
2026-04-23 16:51 52.80910 4.05774 37446 ft 442 kts 124°
2026-04-23 16:52 52.77243 4.13935 37444 ft 442 kts 124°
2026-04-23 16:52 52.73555 4.22102 37445 ft 443 kts 124°
2026-04-23 16:53 52.69876 4.30214 37447 ft 443 kts 124°
2026-04-23 16:53 52.66174 4.38372 37443 ft 444 kts 124°
2026-04-23 16:54 52.62471 4.46513 37446 ft 444 kts 124°
2026-04-23 16:54 52.58822 4.54473 37439 ft 445 kts 125°
2026-04-23 16:55 52.55107 4.62551 37439 ft 445 kts 125°
2026-04-23 16:55 52.51370 4.70675 37433 ft 445 kts 125°
2026-04-23 16:56 52.47647 4.78765 37432 ft 446 kts 125°
2026-04-23 16:56 52.43889 4.86885 37428 ft 446 kts 125°